Tracking 29528 objects as of 14-Sep-2024
HD Live streaming from Space Station
objects crossing your sky now

FENGYUN 1C DEB

Track FENGYUN 1C DEB now!
10-day predictions


NORAD ID: 31829
Int'l Code: 1999-025CHT
Perigee: 819.0 km
Apogee: 1,068.0 km
Inclination: 98.8 °
Period: 103.8 minutes
Semi major axis: 7314 km
RCS: 0.0129 m2 (small)
Launch date: May 10, 1999
Source: People's Republic of China (PRC)
Launch site: Taiyaun Space Center, China (TSC)

Note: This is SATELLITE DEBRIS
Your satellite tracking list
Your tracking list is empty




NASA's NSSDC Master Catalog

Two Line Element Set (TLE):
1 31829U 99025CHT 24256.77907679  .00002056  00000-0  15757-2 0  9999
2 31829  98.8259  84.7512 0170224 327.4622  44.4797 13.87806647878216
Source of the keplerian elements: AFSPC